Home   Weather   Denare Beach   Past weeks

Flag for Canada Past Weather in Denare Beach, Saskatchewan, Canada — Yesterday and Last 2 Weeks

Now
48 °F

Overcast.


Feels Like: 48 °F
Forecast: 40 / 53 °F
Wind: No wind

Location: The Pas

Current Time: Sep 28, 2016 at 11:59:57 PM

Latest Report: Sep 28, 2016 at 11:00 PM


Visibility: 15 mi

Pressure: 30.43 "Hg

Humidity: 82%

Dew Point: 43 °F

Location of Denare BeachLocation

Past Weather in Denare Beach — Graph

°F

Denare Beach Temperature Yesterday

Maximum temperature yesterday: 61 °F (at 5:00 PM)
Minimum temperature yesterday: 34 °F (at 8:00 AM)
Average temperature yesterday: 48 °F

High & Low Weather Summary for the Past Weeks

 TemperatureHumidityPressure
High72 °F (Sep 14, 6:00 PM)100% (Sep 24, 9:00 AM)30.43 "Hg (Sep 24, 9:00 AM)
Low34 °F (Sep 21, 7:00 AM)31% (Sep 27, 6:00 PM)29.37 "Hg (Sep 18, 6:00 AM)
Average53 °F72%29.94 "Hg
* Reported Sep 13 11:00 PM — Sep 28 11:00 PM, Denare Beach, Weather by CustomWeather, © 2016

Note: Actual official high and low records may vary slightly from our data, if they occured in-between our weather recording intervals... More about our weather records

Advertising

Denare Beach Weather History for the Previous 24 Hours

Scroll right to see more
 ConditionsComfort  
Time TempWeatherWind HumidityBarometerVisibility
11:00 PM
Wed, Sep 28
48 °FOvercast.No wind82%30.43 "Hg15 mi
10:00 PM48 °FOvercast.2 mph82%30.42 "Hg15 mi
9:00 PM50 °FPassing clouds.2 mph76%30.41 "Hg15 mi
8:00 PM50 °FPassing clouds.No wind76%30.39 "Hg15 mi
7:00 PM57 °FScattered clouds.2 mph55%30.39 "Hg15 mi
6:00 PM61 °FScattered clouds.7 mph36%30.37 "Hg15 mi
5:00 PM63 °FScattered clouds.7 mph32%30.37 "Hg15 mi
4:00 PM63 °FScattered clouds.12 mph37%30.37 "Hg15 mi
3:00 PM63 °FPassing clouds.13 mph32%30.37 "Hg15 mi
2:00 PM63 °FPassing clouds.14 mph34%30.36 "Hg15 mi
1:00 PM61 °FPassing clouds.5 mph45%30.35 "Hg15 mi
12:00 PM59 °FPassing clouds.6 mph55%30.35 "Hg15 mi
11:00 AM55 °FPassing clouds.8 mph67%30.35 "Hg15 mi
10:00 AM52 °FPassing clouds.9 mph82%30.33 "Hg15 mi
9:00 AM50 °FPassing clouds.8 mph82%30.30 "Hg15 mi
8:00 AM50 °FPassing clouds.6 mph82%30.27 "Hg15 mi
7:00 AM50 °FPassing clouds.9 mph82%30.24 "Hg15 mi
6:00 AM52 °FPassing clouds.6 mph82%30.20 "Hg15 mi
5:00 AM50 °FPassing clouds.8 mph82%30.16 "Hg15 mi
4:00 AM46 °FOvercast.2 mph87%30.14 "Hg10 mi
3:00 AM46 °FOvercast.3 mph93%30.12 "Hg10 mi
2:00 AM45 °FPassing clouds.3 mph93%30.10 "Hg8 mi
1:00 AM43 °FPassing clouds.10 mph100%30.06 "Hg15 mi
12:00 AM45 °FPassing clouds.8 mph93%30.06 "Hg15 mi
11:00 PM
Tue, Sep 27
43 °FClear.10 mph93%30.05 "Hg15 mi
Weather by CustomWeather, © 2016

See weather overviewHow to use our weather pages